Defiance, OH

11:48 AM EST on February 27, 2017 (GMT -0500)
Defiance Memorial

Weather History for KDFI - May, 2012

Change the Weather History Date:

Thursday, May 31, 2012

  Actual Average Record
Temperature  
Mean Temperature 60 °F -  
Max Temperature 71 °F 75 °F 92 °F (1937)
Min Temperature 51 °F 53 °F 37 °F (1966)
Degree Days  
Heating Degree Days 4    
Growing Degree Days 10 (Base 50)    
Moisture  
Dew Point 49 °F    
Average Humidity 70    
Maximum Humidity 90    
Minimum Humidity 49    
Precipitation  
Precipitation 0.16 in - - ()
Sea Level Pressure  
Sea Level Pressure 29.92 in    
Wind  
Wind Speed 8 mph (NE)    
Max Wind Speed 17 mph    
Max Gust Speed 30 mph    
Visibility 10 miles    
Events Rain    
Averages and records for this station are not official NWS values.
T = Trace of Precipitation, MM = Missing Value Source: NWS Daily Summary

Daily Weather History Graph

Daily Weather History Graph

Search for Another Location

Airport or City:

Trip Planner

Search our weather history database for the weather conditions in past years. The results will help you decide how hot, cold, wet, or windy it might be!

Date:

Astronomy

May. 31, 2012 Rise Set
Actual Time 6:07 AM EDT 9:04 PM EDT
Civil Twilight 5:33 AM EDT 9:37 PM EDT
Nautical Twilight 4:52 AM EDT 10:19 PM EDT
Astronomical Twilight 4:03 AM EDT 11:08 PM EDT
Moon 4:50 PM EDT (5/31) 3:07 AM EDT (5/31)
Length of Visible Light 16h 03m
Length of Day
14h 57m
Waxing Gibbous, 80% of the Moon is Illuminated
May 31
Waxing Gibbous
Jun 4
Full
Jun 11
Last Quarter
Jun 19
New
Jun 26
First Quarter

Hourly Weather History & Observations

Time (EDT) Temp. Dew Point Humidity Pressure Visibility Wind Dir Wind Speed Gust Speed Precip Events Conditions
12:53 AM 57.9 °F 46.9 °F 67% 29.91 in 10.0 mi NNW 4.6 mph - N/A   Clear
1:53 AM 55.9 °F 46.0 °F 69% 29.91 in 10.0 mi NW 4.6 mph - N/A   Clear
2:53 AM 55.0 °F 46.9 °F 74% 29.92 in 10.0 mi NW 3.5 mph - N/A   Clear
3:53 AM 52.0 °F 46.9 °F 83% 29.93 in 10.0 mi NW 6.9 mph - N/A   Clear
4:53 AM 52.0 °F 46.0 °F 80% 29.94 in 10.0 mi NNW 5.8 mph - N/A   Clear
5:53 AM 51.1 °F 46.0 °F 83% 29.94 in 10.0 mi North 6.9 mph - N/A   Clear
6:53 AM 52.0 °F 45.0 °F 77% 29.96 in 10.0 mi NNE 8.1 mph - N/A   Partly Cloudy
7:33 AM 53.6 °F 46.4 °F 77% 29.98 in 10.0 mi NNE 9.2 mph - N/A   Overcast
7:43 AM 53.6 °F 46.4 °F 77% 29.99 in 10.0 mi NNE 8.1 mph - N/A   Overcast
7:53 AM 54.0 °F 46.0 °F 75% 29.97 in 10.0 mi NNE 9.2 mph - N/A   Overcast
8:30 AM 55.4 °F 48.2 °F 77% 29.98 in 10.0 mi NE 6.9 mph - N/A   Overcast
8:53 AM 57.0 °F 48.0 °F 72% 29.98 in 10.0 mi NE 10.4 mph - N/A   Overcast
9:53 AM 60.1 °F 50.0 °F 69% 29.97 in 10.0 mi East 9.2 mph - N/A   Mostly Cloudy
10:53 AM 64.0 °F 51.1 °F 63% 29.96 in 10.0 mi ENE 9.2 mph - N/A   Mostly Cloudy
11:53 AM 64.9 °F 51.1 °F 61% 29.96 in 10.0 mi ENE 6.9 mph - N/A   Overcast
12:24 PM 64.4 °F 50.0 °F 59% 29.96 in 10.0 mi ENE 8.1 mph - N/A   Overcast
12:53 PM 66.0 °F 51.1 °F 59% 29.95 in 10.0 mi ENE 6.9 mph - N/A   Mostly Cloudy
1:53 PM 66.9 °F 50.0 °F 54% 29.93 in 10.0 mi ENE 11.5 mph - N/A   Mostly Cloudy
2:53 PM 70.0 °F 50.0 °F 49% 29.91 in 10.0 mi ENE 10.4 mph - N/A   Mostly Cloudy
3:53 PM 69.1 °F 50.0 °F 51% 29.88 in 10.0 mi ENE 10.4 mph 19.6 mph N/A   Mostly Cloudy
4:53 PM 69.1 °F 50.0 °F 51% 29.86 in 10.0 mi ENE 12.7 mph - N/A   Clear
5:53 PM 64.9 °F 48.9 °F 56% 29.86 in 10.0 mi ENE 10.4 mph 20.7 mph N/A   Overcast
6:53 PM 64.0 °F 48.0 °F 56% 29.83 in 10.0 mi ENE 12.7 mph 23.0 mph N/A   Overcast
7:53 PM 59.0 °F 48.9 °F 69% 29.85 in 7.0 mi NE 13.8 mph - 0.01 in Rain Light Rain
8:53 PM 55.9 °F 52.0 °F 87% 29.85 in 5.0 mi NE 11.5 mph 20.7 mph 0.09 in Rain Light Rain
9:53 PM 54.0 °F 51.1 °F 90% 29.83 in 8.0 mi NE 12.7 mph 25.3 mph 0.05 in Rain Light Rain
10:53 PM 54.0 °F 50.0 °F 86% 29.82 in 10.0 mi NE 17.3 mph 28.8 mph 0.01 in   Overcast
11:53 PM 52.0 °F 48.0 °F 86% 29.81 in 10.0 mi NE 12.7 mph 29.9 mph 0.00 in   Overcast